Weather History for Bellingham, WA

Change the Weather History Date:

Friday, February 1, 2013

  Actual Average Record
Temperature  
Mean Temperature 44 °F 40 °F  
Max Temperature 50 °F 47 °F 63 °F (1991)
Min Temperature 39 °F 33 °F -2 °F (1950)
Degree Days  
Heating Degree Days 20 25  
Month to date heating degree days 25  
Cooling Degree Days 0 0  
Month to date cooling degree days 0  
Year to date cooling degree days 0  
Moisture  
Dew Point 42 °F    
Average Humidity 89    
Maximum Humidity 100    
Minimum Humidity 71    
Precipitation  
Precipitation 0.45 in 0.12 in 0.55 in (1982)
Month to date precipitation 0.12  
Year to date precipitation 4.79  
Sea Level Pressure  
Sea Level Pressure 30.41 in    
Wind  
Wind Speed 3 mph (North)    
Max Wind Speed 7 mph    
Max Gust Speed -    
Visibility 8 miles    
Events      
T = Trace of Precipitation, MM = Missing Value Source: NWS Daily Summary

Daily Weather History Graph

Daily Weather History Graph

Search for Another Location

Airport:

Trip Planner

Search our weather history database for the weather conditions in past years. The results will help you decide how hot, cold, wet, or windy it might be!

Date:

Astronomy

Feb. 01, 2013 Rise Set
Actual Time 7:39 AM PST 5:08 PM PST
Civil Twilight 7:05 AM PST 5:42 PM PST
Nautical Twilight 6:27 AM PST 6:20 PM PST
Astronomical Twilight 5:51 AM PST 6:57 PM PST
Moon 11:59 PM PST (2/1) 9:41 AM PST (2/1)
Length of Visible Light 10h 36m
Length of Day
9h 29m
Waning Gibbous, 69% of the Moon is Illuminated
Feb 1
Waning Gibbous
Feb 3
Last Quarter
Feb 9
New
Feb 17
First Quarter
Feb 25
Full

Hourly Weather History & Observations

Time (PST) Temp. Windchill Dew Point Humidity Pressure Visibility Wind Dir Wind Speed Gust Speed Precip Events Conditions
12:53 AM 46.0 °F 43.9 °F 44.1 °F 93% 30.36 in 10.0 mi Variable 4.6 mph - N/A   Overcast
1:01 AM 46.4 °F 45.2 °F 44.6 °F 93% 30.33 in 10.0 mi South 3.5 mph - N/A   Overcast
1:53 AM 46.0 °F 43.9 °F 43.0 °F 89% 30.38 in 10.0 mi West 4.6 mph - N/A   Overcast
1:56 AM 46.4 °F - 44.6 °F 93% 30.35 in 10.0 mi Calm Calm - N/A   Overcast
2:53 AM 45.0 °F 41.8 °F 43.0 °F 93% 30.38 in 10.0 mi South 5.8 mph - N/A   Overcast
3:53 AM 45.0 °F 43.5 °F 43.0 °F 93% 30.39 in 10.0 mi South 3.5 mph - N/A   Overcast
4:04 AM 44.6 °F 42.2 °F 42.8 °F 93% 30.37 in 10.0 mi South 4.6 mph - N/A   Overcast
4:53 AM 45.0 °F 43.5 °F 43.0 °F 93% 30.40 in 8.0 mi South 3.5 mph - N/A   Overcast
5:53 AM 44.6 °F - 42.8 °F 93% 30.37 in 8.0 mi Calm Calm - N/A   Overcast
6:53 AM 44.1 °F 41.5 °F 43.0 °F 96% 30.41 in 8.0 mi SSE 4.6 mph - N/A   Overcast
7:20 AM 44.6 °F - 42.8 °F 93% 30.38 in 8.0 mi Calm Calm - N/A   Overcast
7:29 AM 44.6 °F - 42.8 °F 93% 30.38 in 8.0 mi Calm Calm - N/A   Overcast
7:53 AM 44.1 °F - 43.0 °F 96% 30.41 in 5.0 mi Calm Calm - N/A   Overcast
8:03 AM 44.6 °F - 42.8 °F 93% 30.38 in 7.0 mi Calm Calm - N/A   Overcast
8:19 AM 44.6 °F - 42.8 °F 93% 30.39 in 10.0 mi Calm Calm - N/A   Overcast
8:49 AM 44.6 °F - 42.8 °F 93% 30.40 in 10.0 mi Calm Calm - N/A   Overcast
8:53 AM 45.0 °F - 43.0 °F 93% 30.43 in 10.0 mi Calm Calm - N/A   Overcast
9:53 AM 46.0 °F - 43.0 °F 89% 30.44 in 10.0 mi Calm Calm - 0.45 in   Overcast
10:53 AM 46.9 °F - 43.0 °F 86% 30.45 in 10.0 mi Calm Calm - N/A   Mostly Cloudy
11:00 AM 46.4 °F - 42.8 °F 87% 30.43 in 10.0 mi Calm Calm - N/A   Mostly Cloudy
11:07 AM 48.2 °F - 42.8 °F 82% 30.43 in 10.0 mi Calm Calm - N/A   Mostly Cloudy
11:53 AM 50.0 °F - 43.0 °F 77% 30.45 in 10.0 mi Calm Calm - N/A   Mostly Cloudy
12:00 PM 48.2 °F - 42.8 °F 82% 30.42 in 10.0 mi NNE 4.6 mph - N/A   Mostly Cloudy
12:41 PM 50.0 °F - 42.8 °F 76% 30.41 in 10.0 mi North 5.8 mph - N/A   Mostly Cloudy
12:53 PM 48.2 °F - 42.8 °F 82% 30.41 in 10.0 mi NNE 6.9 mph - N/A   Overcast
1:53 PM 50.0 °F - 41.0 °F 71% 30.43 in 10.0 mi North 6.9 mph - N/A   Mostly Cloudy
2:45 PM 50.0 °F - 42.8 °F 76% 30.39 in 10.0 mi North 6.9 mph - N/A   Scattered Clouds
2:53 PM 50.0 °F - 41.0 °F 71% 30.42 in 10.0 mi North 6.9 mph - N/A   Scattered Clouds
3:53 PM 48.9 °F - 42.1 °F 77% 30.42 in 10.0 mi North 4.6 mph - N/A   Scattered Clouds
4:53 PM 46.0 °F - 41.0 °F 83% 30.42 in 10.0 mi Calm Calm - N/A   Clear
5:53 PM 44.1 °F - 41.0 °F 89% 30.43 in 9.0 mi Calm Calm - N/A   Partly Cloudy
6:53 PM 42.1 °F 40.2 °F 41.0 °F 96% 30.43 in 6.0 mi NNW 3.5 mph - N/A   Clear
7:53 PM 41.0 °F - 39.9 °F 96% 30.44 in 5.0 mi Calm Calm - N/A   Clear
8:28 PM 39.2 °F - 39.2 °F 100% 30.41 in 2.5 mi Calm Calm - N/A   Mostly Cloudy
8:45 PM 41.0 °F - 39.2 °F 93% 30.41 in 4.0 mi Calm Calm - N/A   Scattered Clouds
8:53 PM 39.9 °F - 39.0 °F 97% 30.43 in 4.0 mi Calm Calm - N/A   Partly Cloudy
9:53 PM 39.9 °F - 39.0 °F 97% 30.43 in 3.0 mi Calm Calm - N/A   Clear
10:01 PM 41.0 °F 39.0 °F 39.2 °F 93% 30.40 in 6.0 mi Variable 3.5 mph - N/A   Scattered Clouds
10:09 PM 42.8 °F 38.6 °F 39.2 °F 87% 30.40 in 6.0 mi North 6.9 mph - N/A   Mostly Cloudy
10:46 PM 42.8 °F 39.3 °F 39.2 °F 87% 30.40 in 6.0 mi North 5.8 mph - N/A   Overcast
10:53 PM 41.0 °F 39.0 °F 39.9 °F 96% 30.43 in 6.0 mi North 3.5 mph - N/A   Overcast
11:53 PM 41.0 °F 37.1 °F 39.0 °F 93% 30.43 in 7.0 mi North 5.8 mph - N/A   Overcast